Location: Sungai Apap
(2.6167°N, 113.3833°E)
Time: 15:16:23
(UTC+00:00)

Milstar 3 - Pass Details

Date: 25 May 2024
Orbit: 1098 x 5147 km, 28.2° (Epoch: 11 June)

Event Time Altitude Azimuth Distance (km) Brightness Sun altitude
Rises 12:23:02 0° 279° (W) 3,942 6.8 -26.6°
Reaches altitude 10° 12:25:38 10° 270° (W) 3,093 5.9 -27.2°
Maximum altitude 12:32:22 38° 202° (SSW) 2,113 4.1 -28.7°
Enters shadow 12:35:03 33° 170° (S) 2,534 4.3 -29.3°
